Location: Bezawada
(16.5136°N, 80.6297°E)
Time: 18:20:47
(UTC+00:00)

Palapa B4 Rocket - Pass Details

Date: 27 February 2020
Orbit: 502 x 2696 km, 19.7° (Epoch: 27 March)

Event Time Altitude Azimuth Distance (km) Brightness Sun altitude
Rises 14:21:27 0° 253° (WSW) 5,681 9.2 -24.1°
Reaches altitude 10° 14:25:48 10° 252° (WSW) 4,350 8.3 -25.2°
Maximum altitude 14:36:58 81° 167° (SSE) 1,321 4.5 -27.9°
Enters shadow 14:38:26 62° 96° (E) 1,350 4.3 -28.2°
